Location: Dackenheim
(49.5215°N, 8.1854°E)
Time: 02:25:08
(UTC+00:00)

UWE-3 - Pass Details

Date: 16 March 2026
Orbit: 543 x 612 km, 97.9° (Epoch: 12 April)

Event Time Altitude Azimuth Distance (km) Brightness Sun altitude
Rises 02:29:19 0° 13° (NNE) 2,890 ? -29.7°
Reaches altitude 10° 02:31:31 10° 12° (NNE) 1,976 ? -29.4°
Enters shadow 02:33:57 33° 10° (N) 1,028 ? -29.1°
